Regional Weather Roundup
Issued by NWS

Home | Current Version | Previous Version | Text Only | Print | Product List | Glossary Off
Versions: 1 2 3 4 5 6 7 8 9 10 11 12 13 14 15 16 17 18 19 20 21 22 23 24 25 26 27 28 29 30 31 32 33 34 35 36 37 38 39 40 41 42 43 44 45 46 47 48 49 50

000
ASUS43 KLSX 220407
RWRMO

WEATHER SUMMARY FOR MISSOURI
NATIONAL WEATHER SERVICE SPRINGFIELD MO
1000 PM CST TUE NOV 21 2017

NOTE: "FAIR" INDICATES FEW OR NO CLOUDS BELOW 12,000 FEET WITH NO
       SIGNIFICANT WEATHER AND/OR OBSTRUCTIONS TO VISIBILITY.
       CURRENT SKY AND/OR WEATHER CONDITIONS ARE NOT AVAILABLE FOR
       CHILLICOTHE AND FARMINGTON.

MOZ001>031-035>038-043-044-053-054-220500-
...NORTHERN AND WESTERN MISSOURI...

CITY           SKY/WX    TMP DP  RH WIND       PRES   REMARKS
KANSAS CTY INT CLEAR     27  15  61 NW9       30.39R WCI  18
KANSAS C DTWN  CLEAR     31  15  52 NW6       30.39R WCI  25
LEE`S SUMMIT   CLEAR     30  16  56 N14       30.37S WCI  19
ST JOSEPH      CLOUDY    26  14  60 N9        30.41R WCI  17
CHILLICOTHE      N/A     28  16  60 NW7       30.38R WCI  21
KIRKSVILLE     CLEAR     27  18  69 N8        30.32S WCI  19

$$
MOZ066>068-077>081-088>096-101>105-220500-
...SOUTHWEST MISSOURI...

CITY           SKY/WX    TMP DP  RH WIND       PRES   REMARKS
SPRINGFIELD    CLEAR     36  20  52 N15       30.27R WCI  27
JOPLIN         CLEAR     34  20  56 N15       30.33R WCI  24
BRANSON        CLEAR     39  19  45 N12       30.26R

$$
MOZ032>034-039>042-045>050-055>058-069>072-220500-
...CENTRAL MISSOURI...

CITY           SKY/WX    TMP DP  RH WIND       PRES   REMARKS
COLUMBIA       CLEAR     31  19  61 NW12      30.32R WCI  22
JEFFERSON CITY CLEAR     34  18  52 NW5       30.34R WCI  30
ROLLA          CLEAR     32  19  58 N14G24    30.28R WCI  22
SEDALIA        CLEAR     32  21  64 N10       30.35R WCI  24
WHITEMAN AFB   CLEAR     30  17  59 NW6       30.32R WCI  24
WARRENSBURG    CLEAR     30  19  64 NW6       30.37S WCI  24
OSAGE BEACH    CLEAR     33  18  53 VRB7      30.33R WCI  27

$$
MOZ051-052-059>065-220500-
...EAST CENTRAL MISSOURI...

CITY           SKY/WX    TMP DP  RH WIND       PRES   REMARKS
ST LOUIS INTL  CLEAR     32  21  64 NW9       30.28R WCI  24
SPIRIT OF STL  CLEAR     33  20  58 NW7       30.30R WCI  27
ST CHARLES     CLEAR     32  19  58 NW9       30.29R WCI  24

$$
MOZ072>076-082>087-097>100-106>115-220500-
...SOUTH CENTRAL AND SOUTHEAST MISSOURI...

CITY           SKY/WX    TMP DP  RH WIND       PRES   REMARKS
CAPE GIRARDEAU CLEAR     41  24  51 N12G20    30.19R
FARMINGTON     CLEAR     36  21  54 N15G21    30.24R WCI  27
POPLAR BLUFF   CLEAR     46  24  42 N13       30.19R
WEST PLAINS    CLEAR     42  22  44 N12G20    30.23R

$$



USA.gov is the U.S. government's official web portal to all federal, state and local government web resources and services.